Location: Jarosław
(50.0191°N, 22.6835°E)
Time: 15:40:33
(UTC+01:00)

ISS - Pass Details

Date: 30 January 2019
Orbit: 403 x 411 km, 51.6° (Epoch: 20 February)

Event Time Altitude Azimuth Distance (km) Brightness Sun altitude
Rises 17:25:46 0° 259° (W) 2,331 2.3 -10.8°
Reaches altitude 10° 17:27:51 10° 261° (W) 1,473 0.6 -11.1°
Maximum altitude 17:31:10 77° 348° (NNW) 425 -3.8 -11.6°
Enters shadow 17:33:17 20° 73° (ENE) 1,004 -2.5 -11.9°
